´╗┐

Indeks požarne ogroženosti za amatersko vremensko postajo

(Podrobnosti so pod tabelo)
Legenda:
Majhna (0-210)
Zelo visoka (490 - 630)

Srednja (210 - 350)
Ekstremna (630+)

Visoka (350 - 490)


Flame  Flame
116.9
Datum Temp. (°C) Hitrost Vetra (km/h) Dež (mm) RH Dni od zadnjega dežja pwsFWI
Napovedi, vključno z današnjim dnem, so nad rdečo črto!
24/01/22 5.0 8.0 0.0 0.57 17 60.6
23/01/22 6.0 9.0 0.0 0.56 16 66.6
22/01/22 4.0 9.0 0.0 0.40 15 78.3
21/01/22 3.0 9.0 0.0 0.31 14 91.9
20/01/22 5.0 6.0 0.0 0.73 13 101.5
19/01/22 7.2 13.0 0.0 0.65 12 116.9
18/01/22 9.9 10.0 0.0 0.47 11 120.7
17/01/22 10.4 14.0 0.0 0.43 10 132.5
16/01/22 14.1 13.0 0.0 0.44 9 140.5
15/01/22 9.9 15.0 0.0 0.45 8 137.9
14/01/22 15.8 8.0 0.0 0.33 7 125.7
13/01/22 5.2 13.0 0.0 0.39 6 118.9
12/01/22 4.6 23.0 0.0 0.34 5 112.5
11/01/22 4.4 28.0 0.0 0.38 4 85.8
10/01/22 5.1 23.0 0.0 0.46 3 55.8
09/01/22 1.3 13.0 0.0 0.49 2 33.0
08/01/22 3.9 13.0 0.0 0.36 1 23.1
07/01/22 1.0 14.0 0.5 0.53 0 36.4
06/01/22 2.7 12.0 2.1 0.67 0 63.6
05/01/22 8.3 24.0 26.9 0.83 0 79.7
04/01/22 5.9 22.0 7.3 0.91 0 90.2
03/01/22 5.1 13.0 5.2 0.88 0 94.0
02/01/22 17.5 12.0 0.0 0.42 4 99.7
01/01/22 20.6 10.0 0.0 0.32 3 76.2
31/12/21 17.1 7.0 0.0 0.41 2 37.0
30/12/21 14.8 7.0 0.0 0.48 1 19.9
29/12/21 11.1 5.0 0.5 0.69 0 9.6
28/12/21 5.5 13.0 0.5 0.89 0 10.8
27/12/21 6.4 11.0 0.5 0.75 0 19.8
26/12/21 5.9 12.0 5.7 0.86 0 20.4

CumulusUtils Version 6.7.1 - generated at 20/01/2022 01:00:10 - © Hans Rottier
Science background here. Prediction: https://www.yourweather.co.uk/
sucontract_SNC